Roros Lufthavn, Norway

12:08 PM CET on December 13, 2019 (GMT +0100)
Roros

Weather History for ENRO - October, 2019

Change the Weather History Date:

Sunday, October 27, 2019

  Actual Average Record
Temperature  
Mean Temperature 19 °F -  
Max Temperature 30 °F 35 °F 50 °F (2014)
Min Temperature 8 °F 27 °F 8 °F (2019)
Degree Days  
Heating Degree Days 46    
Moisture  
Dew Point 18 °F    
Average Humidity 96    
Maximum Humidity 100    
Minimum Humidity 86    
Precipitation  
Precipitation 0.00 in - - ()
Sea Level Pressure  
Sea Level Pressure 29.55 in    
Wind  
Wind Speed 3 mph ()    
Max Wind Speed 15 mph    
Max Gust Speed -    
Visibility 3.9 miles    
Events Fog , Snow    
Averages and records for this station are not official NWS values.
T = Trace of Precipitation, MM = Missing Value Source: Averaged Metar Reports

Daily Weather History Graph

Daily Weather History Graph

Search for Another Location

Airport or City:

Astronomy

Oct. 27, 2019 Rise Set
Actual Time 7:33 AM CET 4:22 PM CET
Civil Twilight 6:44 AM CET 5:10 PM CET
Nautical Twilight 5:51 AM CET 6:03 PM CET
Astronomical Twilight 4:59 AM CET 6:55 PM CET
Moon 5:40 AM CET (10/27) 4:51 PM CET (10/27)
Length of Visible Light 10h 25m
Length of Day
8h 49m
Waning Crescent, 1% of the Moon is Illuminated
Oct 27
Waning Crescent
Oct 28
New
Nov 4
First Quarter
Nov 12
Full
Nov 19
Last Quarter

Hourly Weather History & Observations

Time (CET) Temp. Windchill Dew Point Humidity Pressure Visibility Wind Dir Wind Speed Gust Speed Precip Events Conditions
12:20 AM 15.8 °F - 15.8 °F 100% 29.50 in 0.1 mi Variable 1.2 mph - N/A Fog Light Freezing Fog
12:50 AM 15.8 °F - 15.8 °F 100% 29.50 in 0.1 mi Calm Calm - N/A Fog Light Freezing Fog
1:20 AM 14.0 °F - 14.0 °F 100% 29.50 in 0.2 mi Variable 1.2 mph - N/A Fog Light Freezing Fog
1:50 AM 14.0 °F - 14.0 °F 100% 29.50 in 0.3 mi Variable 1.2 mph - N/A Fog Light Freezing Fog
2:20 AM 14.0 °F - 12.2 °F 93% 29.50 in 0.2 mi SSW 1.2 mph - N/A Fog Light Freezing Fog
2:50 AM 12.2 °F - 12.2 °F 100% 29.50 in 0.1 mi Variable 1.2 mph - N/A Fog Light Freezing Fog
2:20 AM 12.2 °F - 10.4 °F 92% 29.50 in 0.2 mi Variable 2.3 mph - N/A Fog Light Freezing Fog
2:50 AM 12.2 °F - 10.4 °F 92% 29.47 in 0.2 mi Variable 1.2 mph - N/A Fog Light Freezing Fog
3:20 AM 12.2 °F - 10.4 °F 92% 29.47 in 1.6 mi Calm Calm - N/A   Overcast
3:50 AM 10.4 °F - 10.4 °F 100% 29.47 in 0.6 mi Calm Calm - N/A Fog Light Freezing Fog
4:20 AM 10.4 °F - 10.4 °F 100% 29.47 in 0.7 mi NW 2.3 mph - N/A   Overcast
4:50 AM 10.4 °F - 8.6 °F 92% 29.47 in 0.6 mi WNW 2.3 mph - N/A   Overcast
5:20 AM 8.6 °F - 8.6 °F 100% 29.47 in 1.3 mi NNW 2.3 mph - N/A   Overcast
5:50 AM 8.6 °F - 6.8 °F 92% 29.47 in 0.6 mi NNW 1.2 mph - N/A   Overcast
6:20 AM 8.6 °F - 6.8 °F 92% 29.47 in 6.2 mi Variable 1.2 mph - N/A   Mostly Cloudy
6:50 AM 8.6 °F - 6.8 °F 92% 29.47 in 6.2 mi Variable 1.2 mph - N/A   Overcast
7:20 AM 10.4 °F - 8.6 °F 92% 29.47 in 6.2 mi Variable 2.3 mph - N/A   Overcast
7:50 AM 10.4 °F - 8.6 °F 92% 29.47 in 6.2 mi NW 2.3 mph - N/A   Overcast
8:20 AM 12.2 °F 4.3 °F 10.4 °F 92% 29.50 in 6.2 mi SW 4.6 mph - N/A Snow Light Snow
8:50 AM 14.0 °F 8.2 °F 12.2 °F 93% 29.50 in 4.3 mi SW 3.5 mph - N/A Snow Light Snow
9:50 AM 15.8 °F 8.6 °F 14.0 °F 93% 29.50 in 0.8 mi WSW 4.6 mph - N/A Snow Light Snow
10:20 AM 17.6 °F 9.3 °F 15.8 °F 93% 29.50 in 6.2 mi WSW 5.8 mph - N/A Snow Light Snow
10:50 AM 17.6 °F 10.7 °F 17.6 °F 100% 29.50 in 6.2 mi SW 4.6 mph - N/A Snow Light Snow
11:20 AM 21.2 °F 13.6 °F 21.2 °F 100% 29.50 in 6.2 mi SW 5.8 mph - N/A Snow Light Snow
11:50 AM 21.2 °F 13.6 °F 21.2 °F 100% 29.53 in 6.2 mi SW 5.8 mph - N/A Snow Light Snow Showers
1:20 PM 24.8 °F 15.3 °F 24.8 °F 100% 29.53 in 5.6 mi SW 9.2 mph - N/A Snow Light Snow
1:50 PM 24.8 °F 16.1 °F 24.8 °F 100% 29.56 in - SW 8.1 mph - N/A Snow Light Snow
2:20 PM 26.6 °F 21.2 °F 26.6 °F 100% 29.56 in - WSW 4.6 mph - N/A Snow Light Snow
2:50 PM 26.6 °F 19.1 °F 26.6 °F 100% 29.56 in 6.2 mi SSW 6.9 mph - N/A Snow Light Snow
3:20 PM 26.6 °F 18.2 °F 26.6 °F 100% 29.56 in 6.2 mi SW 8.1 mph - N/A Snow Light Snow Showers
4:20 PM 26.6 °F 20.0 °F 26.6 °F 100% 29.59 in 6.2 mi SSW 5.8 mph - N/A Snow Light Snow Showers
4:50 PM 26.6 °F 22.6 °F 26.6 °F 100% 29.62 in 6.2 mi WSW 3.5 mph - N/A Snow Light Snow Showers
5:20 PM 28.4 °F 24.6 °F 28.4 °F 100% 29.62 in 6.2 mi Variable 3.5 mph - N/A Snow Light Snow Showers
5:50 PM 30.2 °F 20.2 °F 30.2 °F 100% 29.62 in 1.6 mi NW 12.7 mph - N/A Snow Light Snow Showers
6:20 PM 30.2 °F 21.3 °F 28.4 °F 93% 29.65 in 6.2 mi NW 10.4 mph - N/A Snow Light Snow Showers
7:20 PM 30.2 °F 20.2 °F 28.4 °F 93% 29.68 in 6.2 mi NW 12.7 mph - N/A Snow Light Snow Showers
7:50 PM 30.2 °F 21.3 °F 26.6 °F 86% 29.68 in 6.2 mi WNW 10.4 mph - N/A   Scattered Clouds
8:20 PM 28.4 °F 23.3 °F 28.4 °F 100% 29.68 in 6.2 mi NNW 4.6 mph - N/A Snow Light Snow Showers
8:50 PM 30.2 °F 19.3 °F 26.6 °F 86% 29.68 in 6.2 mi WNW 15.0 mph - N/A   Mostly Cloudy
9:20 PM 30.2 °F 22.6 °F 28.4 °F 93% 29.71 in 6.2 mi NW 8.1 mph - N/A Snow Light Snow Showers
9:50 PM 30.2 °F 20.8 °F 28.4 °F 93% 29.71 in 6.2 mi NW 11.5 mph - N/A Snow Light Snow Showers
10:20 PM 30.2 °F 23.4 °F 26.6 °F 86% 29.71 in 6.2 mi NW 6.9 mph - N/A   Scattered Clouds
10:50 PM 28.4 °F 22.2 °F 26.6 °F 93% 29.74 in 6.2 mi WNW 5.8 mph - N/A Snow Light Snow Showers